Location: Bjelajci
(45.0103°N, 16.1758°E)
Time: 04:28:54
(UTC+00:00)

Cosmos 1536 - Pass Details

Date: 14 July 2020
Orbit: 539 x 560 km, 82.5° (Epoch: 11 August)

Event Time Altitude Azimuth Distance (km) Brightness Sun altitude
Exits shadow 02:02:54 17° 233° (SW) 1,456 4.3 -11.6°
Maximum altitude 02:05:21 30° 285° (WNW) 1,011 3.9 -11.3°
Drops below altitude 10° 02:08:59 10° 348° (NNW) 1,848 6.0 -10.8°
Sets 02:11:21 0° 360° (N) 2,745 7.1 -10.6°
